FW8891 Weather Reports


Display with metric or nautical units.
time (UTC)temp
F
wind
direction
speed
MPH
gust
MPH
rain 1hr
in
rain 24hr
in
rain mn
in
humidity
%
barometer
mb
20260505015559 74 168 4.0 8.0 0.00 0.00 0.00 34 1011.4
20260505015102 74 217 3.0 7.0 0.00 0.00 0.00 34 1011.6
20260505014602 74 190 3.0 7.0 0.00 0.00 0.00 35 1011.5
20260505014058 74 167 4.0 6.0 0.00 0.00 0.00 34 1011.4
20260505013558 74 198 4.0 6.0 0.00 0.00 0.00 34 1011.5
20260505013059 74 200 3.0 6.0 0.00 0.00 0.00 35 1011.4
20260505012600 74 146 3.0 7.0 0.00 0.00 0.00 35 1011.4
20260505012104 74 146 3.0 7.0 0.00 0.00 0.00 35 1011.3
20260505011601 74 161 3.0 7.0 0.00 0.00 0.00 35 1011.3
20260505011058 75 189 3.0 9.0 0.00 0.00 0.00 35 1011.5
20260505010559 75 172 5.0 9.0 0.00 0.00 0.00 35 1011.5
20260505010105 75 198 4.0 9.0 0.00 0.00 0.00 36 1011.5
20260505005604 75 198 4.0 6.0 0.00 0.00 0.00 36 1011.5
20260505005059 75 92 3.0 8.0 0.00 0.00 0.00 38 1011.6
20260505004601 75 141 4.0 8.0 0.00 0.00 0.00 39 1011.6
20260505004058 75 141 4.0 8.0 0.00 0.00 0.00 39 1011.6
20260505003601 75 91 4.0 8.0 0.00 0.00 0.00 38 1011.6
20260505003105 76 206 4.0 8.0 0.00 0.00 0.00 38 1011.6
20260505002558 76 160 4.0 10.0 0.00 0.00 0.00 37 1011.7
20260505002058 76 173 4.0 11.0 0.00 0.00 0.00 37 1011.7
20260505001559 76 141 5.0 11.0 0.00 0.00 0.00 38 1011.8
20260505001059 76 127 6.0 11.0 0.00 0.00 0.00 38 1011.7
20260505000559 76 134 5.0 10.0 0.00 0.00 0.00 38 1011.7
20260505000111 76 151 6.0 12.0 0.00 0.00 0.00 37 1011.7
20260504235559 76 202 6.0 12.0 0.00 0.00 0.00 37 1011.7
20260504235059 76 139 4.0 10.0 0.00 0.00 0.00 38 1011.6
20260504234558 76 126 4.0 9.0 0.00 0.00 0.00 38 1011.7
20260504234059 77 149 5.0 9.0 0.00 0.00 0.00 38 1011.8
20260504233558 77 125 6.0 9.0 0.00 0.00 0.00 37 1011.7
20260504233102 77 134 4.0 11.0 0.00 0.00 0.00 37 1011.6
20260504232559 77 140 5.0 11.0 0.00 0.00 0.00 37 1011.6
20260504232058 78 171 5.0 11.0 0.00 0.00 0.00 37 1011.6
20260504231559 78 158 5.0 10.0 0.00 0.00 0.00 37 1011.5
20260504231058 78 186 4.0 8.0 0.00 0.00 0.00 38 1011.5
20260504230556 77 122 4.0 14.0 0.00 0.00 0.00 39 1011.6
20260504230059 78 172 4.0 14.0 0.00 0.00 0.00 38 1011.6
20260504225602 78 153 6.0 10.0 0.00 0.00 0.00 38 1011.6
20260504225102 78 105 4.0 9.0 0.00 0.00 0.00 39 1011.7
20260504224602 78 195 4.0 9.0 0.00 0.00 0.00 39 1011.7
20260504224058 78 186 3.0 9.0 0.00 0.00 0.00 40 1011.7
20260504223559 78 186 3.0 11.0 0.00 0.00 0.00 39 1011.8
20260504223059 77 233 3.0 11.0 0.00 0.00 0.00 40 1011.8
20260504222559 77 70 3.0 7.0 0.00 0.00 0.00 40 1011.9
20260504222058 77 168 4.0 7.0 0.00 0.00 0.00 40 1012.1
20260504221558 77 82 3.0 7.0 0.00 0.00 0.00 40 1012.1
20260504221059 78 140 3.0 9.0 0.00 0.00 0.00 39 1012.0
20260504220559 78 117 2.0 9.0 0.00 0.00 0.00 38 1012.1
20260504220118 78 143 3.0 8.0 0.00 0.00 0.00 38 1012.2
20260504215558 77 137 4.0 9.0 0.00 0.00 0.00 40 1012.4
20260504215101 77 247 4.0 9.0 0.00 0.00 0.00 41 1012.6
20260504214559 78 110 4.0 11.0 0.00 0.00 0.00 39 1012.5
20260504214058 77 84 6.0 11.0 0.00 0.00 0.00 39 1012.7
20260504213559 77 172 4.0 13.0 0.00 0.00 0.00 39 1012.8
20260504213101 78 176 5.0 13.0 0.00 0.00 0.00 37 1013.0
20260504212556 78 141 6.0 10.0 0.00 0.00 0.00 38 1013.1
20260504212056 78 138 5.0 12.0 0.00 0.00 0.00 38 1012.9
20260504211558 78 200 6.0 12.0 0.00 0.00 0.00 37 1012.9
20260504211059 78 203 5.0 12.0 0.00 0.00 0.00 38 1012.9
20260504210559 78 245 6.0 11.0 0.00 0.00 0.00 37 1013.2
20260504210058 77 230 4.0 9.0 0.00 0.00 0.00 39 1013.3
20260504205559 77 136 5.0 12.0 0.00 0.00 0.00 39 1013.2
20260504205059 76 136 5.0 12.0 0.00 0.00 0.00 40 1013.3
20260504204556 76 120 6.0 11.0 0.00 0.00 0.00 40 1013.2
20260504204058 76 158 7.0 10.0 0.00 0.00 0.00 39 1013.3
20260504203558 76 167 6.0 11.0 0.00 0.00 0.00 39 1013.4
20260504203058 76 209 5.0 11.0 0.00 0.00 0.00 39 1013.5
20260504202558 76 149 6.0 12.0 0.00 0.00 0.00 38 1013.5
20260504202059 76 160 6.0 12.0 0.00 0.00 0.00 38 1013.6
20260504201559 76 203 5.0 10.0 0.00 0.00 0.00 39 1013.6
20260504201059 75 140 5.0 10.0 0.00 0.00 0.00 40 1013.6
20260504200559 75 155 6.0 10.0 0.00 0.00 0.00 40 1013.4
20260504195558 75 107 5.0 11.0 0.00 0.00 0.00 40 1013.5
20260504195059 75 206 7.0 17.0 0.00 0.00 0.00 39 1013.7
20260504194559 75 197 6.0 17.0 0.00 0.00 0.00 40 1013.7
20260504194059 76 131 7.0 13.0 0.00 0.00 0.00 39 1013.6
20260504193559 76 94 6.0 13.0 0.00 0.00 0.00 39 1013.5
20260504193100 76 113 7.0 13.0 0.00 0.00 0.00 39 1013.3
20260504192558 75 205 5.0 12.0 0.00 0.00 0.00 40 1013.6
20260504192058 75 215 5.0 11.0 0.00 0.00 0.00 40 1013.6
20260504191601 75 172 5.0 11.0 0.00 0.00 0.00 41 1013.6
20260504191058 75 175 4.0 15.0 0.00 0.00 0.00 41 1013.5
20260504190558 75 208 6.0 15.0 0.00 0.00 0.00 40 1013.5
20260504190111 75 159 5.0 9.0 0.00 0.00 0.00 40 1013.4
20260504185602 75 201 4.0 9.0 0.00 0.00 0.00 40 1013.2
20260504185059 75 178 3.0 10.0 0.00 0.00 0.00 40 1013.1
20260504184614 75 212 7.0 10.0 0.00 0.00 0.00 39 1013.6
20260504184059 75 229 3.0 8.0 0.00 0.00 0.00 41 1013.3
20260504183559 75 116 4.0 11.0 0.00 0.00 0.00 41 1013.5
20260504183101 75 117 6.0 11.0 0.00 0.00 0.00 41 1013.9
20260504182558 75 238 5.0 11.0 0.00 0.00 0.00 41 1014.0
20260504182058 75 226 6.0 10.0 0.00 0.00 0.00 40 1013.8
20260504181559 74 186 3.0 7.0 0.00 0.00 0.00 43 1014.1
20260504181059 74 186 1.0 9.0 0.00 0.00 0.00 44 1013.8
20260504180558 73 221 3.0 10.0 0.00 0.00 0.00 45 1013.7
20260504180058 73 159 2.0 10.0 0.00 0.00 0.00 46 1013.7
20260504175558 73 141 4.0 10.0 0.00 0.00 0.00 45 1013.9
20260504175059 73 216 4.0 8.0 0.00 0.00 0.00 46 1014.0
20260504174609 73 189 3.0 8.0 0.00 0.00 0.00 47 1013.9
20260504174059 73 123 3.0 8.0 0.00 0.00 0.00 46 1013.8
20260504173558 73 169 4.0 10.0 0.00 0.00 0.00 46 1013.8
20260504173105 73 187 3.0 10.0 0.00 0.00 0.00 46 1013.8
20260504172558 72 229 5.0 10.0 0.00 0.00 0.00 47 1013.8
20260504172059 72 230 3.0 9.0 0.00 0.00 0.00 48 1013.6
20260504171557 72 164 5.0 9.0 0.00 0.00 0.00 48 1013.4
20260504171101 72 133 5.0 9.0 0.00 0.00 0.00 47 1013.0
20260504170559 72 145 4.0 8.0 0.00 0.00 0.00 47 1012.9
20260504151059 71 200 6.0 8.0 0.00 0.00 0.00 50 1013.2
20260504150601 71 246 4.0 7.0 0.00 0.00 0.00 49 1013.0
20260504141058 70 183 3.0 6.0 0.00 0.00 0.00 47 1012.5
20260504140558 70 207 2.0 6.0 0.00 0.00 0.00 47 1012.3
20260504130558 70 132 1.0 4.0 0.00 0.00 0.00 47 1012.0
20260504110559 69 0 0.0 0.0 0.00 0.00 0.00 45 1011.3
20260504100559 73 150 4.0 8.0 0.00 0.00 0.00 41 1011.5
20260504081606 74 0 0.0 2.0 0.00 0.00 0.00 40 1011.0
20260504081101 74 253 0.0 2.0 0.00 0.00 0.00 40 1011.0
20260504080559 74 186 0.0 4.0 0.00 0.00 0.00 39 1011.0
20260504050558 79 149 4.0 15.0 0.00 0.00 0.00 29 1010.4
20260504050107 79 184 7.0 16.0 0.00 0.00 0.00 29 1010.4
20260504045558 79 209 8.0 16.0 0.00 0.00 0.00 29 1010.3
20260504045058 80 164 9.0 18.0 0.00 0.00 0.00 29 1010.3
20260504044604 80 227 9.0 18.0 0.00 0.00 0.00 29 1010.3
20260504044058 80 190 6.0 16.0 0.00 0.00 0.00 28 1010.3
20260504043558 80 186 10.0 16.0 0.00 0.00 0.00 28 1010.2
20260504043102 80 226 8.0 14.0 0.00 0.00 0.00 27 1010.1
20260504042559 80 163 6.0 12.0 0.00 0.00 0.00 26 1010.1
20260504042100 80 217 7.0 12.0 0.00 0.00 0.00 26 1010.1
20260504041557 80 219 5.0 12.0 0.00 0.00 0.00 25 1010.3
20260504041058 81 207 5.0 12.0 0.00 0.00 0.00 25 1010.2
20260504040558 81 215 6.0 12.0 0.00 0.00 0.00 24 1009.9
20260504040106 81 233 5.0 15.0 0.00 0.00 0.00 24 1009.9
20260504035559 81 210 7.0 15.0 0.00 0.00 0.00 24 1009.8
20260504035059 81 164 6.0 10.0 0.00 0.00 0.00 24 1009.7
20260504034621 81 252 5.0 12.0 0.00 0.00 0.00 24 1009.7
20260504034059 82 188 5.0 12.0 0.00 0.00 0.00 23 1009.4
20260504033602 82 231 5.0 15.0 0.00 0.00 0.00 23 1009.4
20260504033127 82 307 7.0 15.0 0.00 0.00 0.00 23 1009.2
20260504032559 82 150 5.0 13.0 0.00 0.00 0.00 23 1009.0
20260504032102 82 242 7.0 13.0 0.00 0.00 0.00 22 1008.9
20260504031604 83 219 5.0 11.0 0.00 0.00 0.00 22 1008.9
20260504031058 83 236 5.0 11.0 0.00 0.00 0.00 22 1009.0
20260504030558 83 205 6.0 12.0 0.00 0.00 0.00 22 1008.7
20260504030105 83 255 5.0 12.0 0.00 0.00 0.00 22 1008.6
20260504025558 84 205 6.0 12.0 0.00 0.00 0.00 21 1008.5
20260504025058 84 257 5.0 11.0 0.00 0.00 0.00 21 1008.4
20260504024603 84 260 5.0 12.0 0.00 0.00 0.00 21 1008.3
20260504024104 84 223 6.0 12.0 0.00 0.00 0.00 21 1008.2
20260504023559 84 350 6.0 14.0 0.00 0.00 0.00 21 1008.3
20260504023104 85 236 7.0 14.0 0.00 0.00 0.00 21 1008.2
20260504022559 85 282 6.0 14.0 0.00 0.00 0.00 20 1008.3
20260504022100 85 214 7.0 15.0 0.00 0.00 0.00 21 1008.0
20260504021559 85 209 7.0 15.0 0.00 0.00 0.00 21 1008.1
20260504021058 86 215 6.0 13.0 0.00 0.00 0.00 21 1008.0
20260504020558 86 195 6.0 14.0 0.00 0.00 0.00 21 1007.8